カタログに戻る

STARLINK-4120

運用中通信VLEO
NORAD 53537·PAYLOAD·🇺🇸 United States

打ち上げ Aug 19, 2022 から Cape Canaveral Space Force Station

Loading…

次のパス (今後24時間)

TLE

最新Source: CelesTrak SupGP

元期: Sep 14, 2026, 21:58 UTC

1 53537C 22101L   26257.91576389  .00004474  00000+0  13220-3 0  2575
2 53537  53.1599 295.5388 0001111  89.2445 319.7566 15.34387320    17

AllMySatでSTARLINK-4120をリアルタイム追跡

Download on the App Store